Location: Acequia del Cap
(41.7000°N, 0.6167°E)
Time: 23:22:55
(UTC+00:00)

Cosmos 1908 - Pass Details

Date: 07 August 2020
Orbit: 510 x 531 km, 82.5° (Epoch: 22 September)

Event Time Altitude Azimuth Distance (km) Brightness Sun altitude
Exits shadow 03:38:15 - 179° (S) 1,856 5.7 -13.7°
Reaches altitude 10° 03:38:27 10° 179° (S) 1,770 5.6 -13.7°
Maximum altitude 03:42:19 70° 96° (E) 569 3.5 -13.1°
Drops below altitude 10° 03:46:14 10° 13° (NNE) 1,790 6.7 -12.5°
Sets 03:48:24 0° 11° (N) 2,686 7.6 -12.2°
